Year,Month,Day,Hour,Minute,Value (Times are PST for temperature in C)
2009,07,18,00,00,21.70
2009,07,18,00,01,21.80
2009,07,18,00,02,21.80
2009,07,18,00,03,21.80
2009,07,18,00,04,21.80
2009,07,18,00,05,21.80
2009,07,18,00,06,21.80
2009,07,18,00,07,21.80
2009,07,18,00,08,21.80
2009,07,18,00,09,21.80
2009,07,18,00,10,21.80
2009,07,18,00,11,21.80
2009,07,18,00,12,21.80
2009,07,18,00,13,21.80
2009,07,18,00,14,21.80
2009,07,18,00,15,21.80
2009,07,18,00,16,21.80
2009,07,18,00,17,21.80
2009,07,18,00,18,21.80
2009,07,18,00,19,21.80
2009,07,18,00,20,21.80
2009,07,18,00,21,21.80
2009,07,18,00,22,21.80
2009,07,18,00,23,21.80
2009,07,18,00,24,21.70
2009,07,18,00,25,21.70
2009,07,18,00,26,21.70
2009,07,18,00,27,21.70
2009,07,18,00,28,21.60
2009,07,18,00,29,21.60
2009,07,18,00,30,21.60
2009,07,18,00,31,21.60
2009,07,18,00,32,21.60
2009,07,18,00,33,21.60
2009,07,18,00,34,21.60
2009,07,18,00,35,21.60
2009,07,18,00,36,21.50
2009,07,18,00,37,21.40
2009,07,18,00,38,21.40
2009,07,18,00,39,21.40
2009,07,18,00,40,21.30
2009,07,18,00,41,21.30
2009,07,18,00,42,21.30
2009,07,18,00,43,21.30
2009,07,18,00,44,21.30
2009,07,18,00,45,21.30
2009,07,18,00,46,21.30
2009,07,18,00,47,21.20
2009,07,18,00,48,21.20
2009,07,18,00,49,21.20
2009,07,18,00,50,21.10
2009,07,18,00,51,21.10
2009,07,18,00,52,21.10
2009,07,18,00,53,21.10
2009,07,18,00,54,21.10
2009,07,18,00,55,21.00
2009,07,18,00,56,21.00
2009,07,18,00,57,21.00
2009,07,18,00,58,21.00
2009,07,18,00,59,20.90
2009,07,18,01,00,20.90
2009,07,18,01,01,20.90
2009,07,18,01,02,20.90
2009,07,18,01,03,20.80
2009,07,18,01,04,20.80
2009,07,18,01,05,20.70
2009,07,18,01,06,20.60
2009,07,18,01,07,20.60
2009,07,18,01,08,20.60
2009,07,18,01,09,20.60
2009,07,18,01,10,20.50
2009,07,18,01,11,20.50
2009,07,18,01,12,20.50
2009,07,18,01,13,20.50
2009,07,18,01,14,20.50
2009,07,18,01,15,20.50
2009,07,18,01,16,20.50
2009,07,18,01,17,20.50
2009,07,18,01,18,20.50
2009,07,18,01,19,20.50
2009,07,18,01,20,20.50
2009,07,18,01,21,20.50
2009,07,18,01,22,20.50
2009,07,18,01,23,20.50
2009,07,18,01,24,20.40
2009,07,18,01,25,20.40
2009,07,18,01,26,20.40
2009,07,18,01,27,20.50
2009,07,18,01,28,20.50
2009,07,18,01,29,20.40
2009,07,18,01,30,20.50
2009,07,18,01,31,20.50
2009,07,18,01,32,20.50
2009,07,18,01,33,20.50
2009,07,18,01,34,20.50
2009,07,18,01,35,20.50
2009,07,18,01,36,20.50
2009,07,18,01,37,20.40
2009,07,18,01,38,20.40
2009,07,18,01,39,20.40
2009,07,18,01,40,20.30
2009,07,18,01,41,20.20
2009,07,18,01,42,20.10
2009,07,18,01,43,20.00
2009,07,18,01,44,19.90
2009,07,18,01,45,19.90
2009,07,18,01,46,19.90
2009,07,18,01,47,19.90
2009,07,18,01,48,19.90
2009,07,18,01,49,19.90
2009,07,18,01,50,19.90
2009,07,18,01,51,19.90
2009,07,18,01,52,19.90
2009,07,18,01,53,19.90
2009,07,18,01,54,19.90
2009,07,18,01,55,19.90
2009,07,18,01,56,19.90
2009,07,18,01,57,19.80
2009,07,18,01,58,19.80
2009,07,18,01,59,19.80
2009,07,18,02,00,19.80
2009,07,18,02,01,19.80
2009,07,18,02,02,19.80
2009,07,18,02,03,19.80
2009,07,18,02,04,19.80
2009,07,18,02,05,19.80
2009,07,18,02,06,19.80
2009,07,18,02,07,19.80
2009,07,18,02,08,19.80
2009,07,18,02,09,19.80
2009,07,18,02,10,19.80
2009,07,18,02,11,19.90
2009,07,18,02,12,19.90
2009,07,18,02,13,19.90
2009,07,18,02,14,19.90
2009,07,18,02,15,19.90
2009,07,18,02,16,19.80
2009,07,18,02,17,19.80
2009,07,18,02,18,19.80
2009,07,18,02,19,19.80
2009,07,18,02,20,19.80
2009,07,18,02,21,19.80
2009,07,18,02,22,19.80
2009,07,18,02,23,19.90
2009,07,18,02,24,19.90
2009,07,18,02,25,19.90
2009,07,18,02,26,19.90
2009,07,18,02,27,20.00
2009,07,18,02,28,20.10
2009,07,18,02,29,20.10
2009,07,18,02,30,20.10
2009,07,18,02,31,20.10
2009,07,18,02,32,20.20
2009,07,18,02,33,20.20
2009,07,18,02,34,20.20
2009,07,18,02,35,20.20
2009,07,18,02,36,20.20
2009,07,18,02,37,20.20
2009,07,18,02,38,20.20
2009,07,18,02,39,20.20
2009,07,18,02,40,20.20
2009,07,18,02,41,20.20
2009,07,18,02,42,20.20
2009,07,18,02,43,20.20
2009,07,18,02,44,20.20
2009,07,18,02,45,20.20
2009,07,18,02,46,20.20
2009,07,18,02,47,20.20
2009,07,18,02,48,20.10
2009,07,18,02,49,20.10
2009,07,18,02,50,20.10
2009,07,18,02,51,20.10
2009,07,18,02,52,20.10
2009,07,18,02,53,20.10
2009,07,18,02,54,20.10
2009,07,18,02,55,20.10
2009,07,18,02,56,20.10
2009,07,18,02,57,20.10
2009,07,18,02,58,20.10
2009,07,18,02,59,20.10
2009,07,18,03,00,20.10
2009,07,18,03,01,20.00
2009,07,18,03,02,19.90
2009,07,18,03,03,19.90
2009,07,18,03,04,19.90
2009,07,18,03,05,19.90
2009,07,18,03,06,19.90
2009,07,18,03,07,19.90
2009,07,18,03,08,19.90
2009,07,18,03,09,19.90
2009,07,18,03,10,19.90
2009,07,18,03,11,19.90
2009,07,18,03,12,19.90
2009,07,18,03,13,19.90
2009,07,18,03,14,19.90
2009,07,18,03,15,19.80
2009,07,18,03,16,19.80
2009,07,18,03,17,19.80
2009,07,18,03,18,19.80
2009,07,18,03,19,19.80
2009,07,18,03,20,19.80
2009,07,18,03,21,19.80
2009,07,18,03,22,19.80
2009,07,18,03,23,19.80
2009,07,18,03,24,19.80
2009,07,18,03,25,19.80
2009,07,18,03,26,19.80
2009,07,18,03,27,19.80
2009,07,18,03,28,19.80
2009,07,18,03,29,19.70
2009,07,18,03,30,19.70
2009,07,18,03,31,19.80
2009,07,18,03,32,19.80
2009,07,18,03,33,19.80
2009,07,18,03,34,19.70
2009,07,18,03,35,19.70
2009,07,18,03,36,19.70
2009,07,18,03,37,19.70
2009,07,18,03,38,19.70
2009,07,18,03,39,19.70
2009,07,18,03,40,19.70
2009,07,18,03,41,19.70
2009,07,18,03,42,19.70
2009,07,18,03,43,19.70
2009,07,18,03,44,19.70
2009,07,18,03,45,19.60
2009,07,18,03,46,19.60
2009,07,18,03,47,19.50
2009,07,18,03,48,19.40
2009,07,18,03,49,19.40
2009,07,18,03,50,19.30
2009,07,18,03,51,19.30
2009,07,18,03,52,19.30
2009,07,18,03,53,19.30
2009,07,18,03,54,19.30
2009,07,18,03,55,19.40
2009,07,18,03,56,19.40
2009,07,18,03,57,19.40
2009,07,18,03,58,19.40
2009,07,18,03,59,19.40
2009,07,18,04,00,19.40
2009,07,18,04,01,19.40
2009,07,18,04,02,19.40
2009,07,18,04,03,19.40
2009,07,18,04,04,19.30
2009,07,18,04,05,19.20
2009,07,18,04,06,19.20
2009,07,18,04,07,19.20
2009,07,18,04,08,19.10
2009,07,18,04,09,19.10
2009,07,18,04,10,19.10
2009,07,18,04,11,19.10
2009,07,18,04,12,19.10
2009,07,18,04,13,19.10
2009,07,18,04,14,19.10
2009,07,18,04,15,19.10
2009,07,18,04,16,19.10
2009,07,18,04,17,19.10
2009,07,18,04,18,19.10
2009,07,18,04,19,19.10
2009,07,18,04,20,19.00
2009,07,18,04,21,18.90
2009,07,18,04,22,18.90
2009,07,18,04,23,18.80
2009,07,18,04,24,18.70
2009,07,18,04,25,18.60
2009,07,18,04,26,18.50
2009,07,18,04,27,18.40
2009,07,18,04,28,18.20
2009,07,18,04,29,18.10
2009,07,18,04,30,18.00
2009,07,18,04,31,17.90
2009,07,18,04,32,17.90
2009,07,18,04,33,17.80
2009,07,18,04,34,17.80
2009,07,18,04,35,17.70
2009,07,18,04,36,17.70
2009,07,18,04,37,17.70
2009,07,18,04,38,17.70
2009,07,18,04,39,17.80
2009,07,18,04,40,17.80
2009,07,18,04,41,17.90
2009,07,18,04,42,18.00
2009,07,18,04,43,18.10
2009,07,18,04,44,18.20
2009,07,18,04,45,18.40
2009,07,18,04,46,18.50
2009,07,18,04,47,18.50
2009,07,18,04,48,18.50
2009,07,18,04,49,18.50
2009,07,18,04,50,18.40
2009,07,18,04,51,18.30
2009,07,18,04,52,18.30
2009,07,18,04,53,18.30
2009,07,18,04,54,18.30
2009,07,18,04,55,18.30
2009,07,18,04,56,18.30
2009,07,18,04,57,18.20
2009,07,18,04,58,18.10
2009,07,18,04,59,18.00
2009,07,18,05,00,17.80
2009,07,18,05,01,17.70
2009,07,18,05,02,17.60
2009,07,18,05,03,17.50
2009,07,18,05,04,17.40
2009,07,18,05,05,17.40
2009,07,18,05,06,17.40
2009,07,18,05,07,17.30
2009,07,18,05,08,17.30
2009,07,18,05,09,17.30
2009,07,18,05,10,17.30
2009,07,18,05,11,17.30
2009,07,18,05,12,17.30
2009,07,18,05,13,17.30
2009,07,18,05,14,17.30
2009,07,18,05,15,17.30
2009,07,18,05,16,17.30
2009,07,18,05,17,17.30
2009,07,18,05,18,17.40
2009,07,18,05,19,17.40
2009,07,18,05,20,17.40
2009,07,18,05,21,17.40
2009,07,18,05,22,17.40
2009,07,18,05,23,17.40
2009,07,18,05,24,17.50
2009,07,18,05,25,17.50
2009,07,18,05,26,17.50
2009,07,18,05,27,17.50
2009,07,18,05,28,17.50
2009,07,18,05,29,17.50
2009,07,18,05,30,17.50
2009,07,18,05,31,17.50
2009,07,18,05,32,17.50
2009,07,18,05,33,17.50
2009,07,18,05,34,17.50
2009,07,18,05,35,17.60
2009,07,18,05,36,17.60
2009,07,18,05,37,17.60
2009,07,18,05,38,17.60
2009,07,18,05,39,17.70
2009,07,18,05,40,17.70
2009,07,18,05,41,17.80
2009,07,18,05,42,17.90
2009,07,18,05,43,17.90
2009,07,18,05,44,17.90
2009,07,18,05,45,18.00
2009,07,18,05,46,18.10
2009,07,18,05,47,18.10
2009,07,18,05,48,18.20
2009,07,18,05,49,18.20
2009,07,18,05,50,18.20
2009,07,18,05,51,18.20
2009,07,18,05,52,18.20
2009,07,18,05,53,18.20
2009,07,18,05,54,18.20
2009,07,18,05,55,18.20
2009,07,18,05,56,18.20
2009,07,18,05,57,18.20
2009,07,18,05,58,18.20
2009,07,18,05,59,18.20
2009,07,18,06,00,18.20
2009,07,18,06,01,18.20
2009,07,18,06,02,18.20
2009,07,18,06,03,18.20
2009,07,18,06,04,18.20
2009,07,18,06,05,18.20
2009,07,18,06,06,18.20
2009,07,18,06,07,18.20
2009,07,18,06,08,18.10
2009,07,18,06,09,18.00
2009,07,18,06,10,17.90
2009,07,18,06,11,17.90
2009,07,18,06,12,17.80
2009,07,18,06,13,17.80
2009,07,18,06,14,17.60
2009,07,18,06,15,17.60
2009,07,18,06,16,17.50
2009,07,18,06,17,17.40
2009,07,18,06,18,17.30
2009,07,18,06,19,17.20
2009,07,18,06,20,17.20
2009,07,18,06,21,17.10
2009,07,18,06,22,17.00
2009,07,18,06,23,17.00
2009,07,18,06,24,17.00
2009,07,18,06,25,16.90
2009,07,18,06,26,16.90
2009,07,18,06,27,16.90
2009,07,18,06,28,16.80
2009,07,18,06,29,16.80
2009,07,18,06,30,16.80
2009,07,18,06,31,16.80
2009,07,18,06,32,16.80
2009,07,18,06,33,16.80
2009,07,18,06,34,16.80
2009,07,18,06,35,16.80
2009,07,18,06,36,16.90
2009,07,18,06,37,16.90
2009,07,18,06,38,16.90
2009,07,18,06,39,17.00
2009,07,18,06,40,17.00
2009,07,18,06,41,17.10
2009,07,18,06,42,17.20
2009,07,18,06,43,17.20
2009,07,18,06,44,17.20
2009,07,18,06,45,17.30
2009,07,18,06,46,17.30
2009,07,18,06,47,17.30
2009,07,18,06,48,17.30
2009,07,18,06,49,17.30
2009,07,18,06,50,17.30
2009,07,18,06,51,17.30
2009,07,18,06,52,17.30
2009,07,18,06,53,17.30
2009,07,18,06,54,17.40
2009,07,18,06,55,17.40
2009,07,18,06,56,17.40
2009,07,18,06,57,17.40
2009,07,18,06,58,17.50
2009,07,18,06,59,17.50
2009,07,18,07,00,17.60
2009,07,18,07,01,17.60
2009,07,18,07,02,17.60
2009,07,18,07,03,17.70
2009,07,18,07,04,17.70
2009,07,18,07,05,17.70
2009,07,18,07,06,17.80
2009,07,18,07,07,17.80
2009,07,18,07,08,17.80
2009,07,18,07,09,17.80
2009,07,18,07,10,17.80
2009,07,18,07,11,17.80
2009,07,18,07,12,17.90
2009,07,18,07,13,17.90
2009,07,18,07,14,17.90
2009,07,18,07,15,18.00
2009,07,18,07,16,18.10
2009,07,18,07,17,18.20
2009,07,18,07,18,18.20
2009,07,18,07,19,18.40
2009,07,18,07,20,18.50
2009,07,18,07,21,18.60
2009,07,18,07,22,18.80
2009,07,18,07,23,18.80
2009,07,18,07,24,19.00
2009,07,18,07,25,19.10
2009,07,18,07,26,19.20
2009,07,18,07,27,19.30
2009,07,18,07,28,19.40
2009,07,18,07,29,19.40
2009,07,18,07,30,19.50
2009,07,18,07,31,19.60
2009,07,18,07,32,19.60
2009,07,18,07,33,19.70
2009,07,18,07,34,19.70
2009,07,18,07,35,19.80
2009,07,18,07,36,19.80
2009,07,18,07,37,19.80
2009,07,18,07,38,19.90
2009,07,18,07,39,19.90
2009,07,18,07,40,19.90
2009,07,18,07,41,19.90
2009,07,18,07,42,19.90
2009,07,18,07,43,19.90
2009,07,18,07,44,19.90
2009,07,18,07,45,19.90
2009,07,18,07,46,19.80
2009,07,18,07,47,19.80
2009,07,18,07,48,19.90
2009,07,18,07,49,19.90
2009,07,18,07,50,19.90
2009,07,18,07,51,19.90
2009,07,18,07,52,19.90
2009,07,18,07,53,19.90
2009,07,18,07,54,19.90
2009,07,18,07,55,19.90
2009,07,18,07,56,19.90
2009,07,18,07,57,19.90
2009,07,18,07,58,20.10
2009,07,18,07,59,20.20
2009,07,18,08,00,20.20
2009,07,18,08,01,20.20
2009,07,18,08,02,20.20
2009,07,18,08,03,20.20
2009,07,18,08,04,20.20
2009,07,18,08,05,20.20
2009,07,18,08,06,20.20
2009,07,18,08,07,20.30
2009,07,18,08,08,20.30
2009,07,18,08,09,20.30
2009,07,18,08,10,20.30
2009,07,18,08,11,20.30
2009,07,18,08,12,20.30
2009,07,18,08,13,20.30
2009,07,18,08,14,20.30
2009,07,18,08,15,20.30
2009,07,18,08,16,20.30
2009,07,18,08,17,20.40
2009,07,18,08,18,20.40
2009,07,18,08,19,20.40
2009,07,18,08,20,20.50
2009,07,18,08,21,20.50
2009,07,18,08,22,20.50
2009,07,18,08,23,20.60
2009,07,18,08,24,20.60
2009,07,18,08,25,20.70
2009,07,18,08,26,20.70
2009,07,18,08,27,20.70
2009,07,18,08,28,20.80
2009,07,18,08,29,20.80
2009,07,18,08,30,20.80
2009,07,18,08,31,20.80
2009,07,18,08,32,20.80
2009,07,18,08,33,20.80
2009,07,18,08,34,20.80
2009,07,18,08,35,20.80
2009,07,18,08,36,20.80
2009,07,18,08,37,20.80
2009,07,18,08,38,20.90
2009,07,18,08,39,21.00
2009,07,18,08,40,21.00
2009,07,18,08,41,21.10
2009,07,18,08,42,21.20
2009,07,18,08,43,21.30
2009,07,18,08,44,21.30
2009,07,18,08,45,21.30
2009,07,18,08,46,21.30
2009,07,18,08,47,21.10
2009,07,18,08,48,20.80
2009,07,18,08,49,20.40
2009,07,18,08,50,20.30
2009,07,18,08,51,20.00
2009,07,18,08,52,19.80
2009,07,18,08,53,19.60
2009,07,18,08,54,19.20
2009,07,18,08,55,18.90
2009,07,18,08,56,18.60
2009,07,18,08,57,18.30
2009,07,18,08,58,18.10
2009,07,18,08,59,18.00
2009,07,18,09,00,17.90
2009,07,18,09,01,17.80
2009,07,18,09,02,17.70
2009,07,18,09,03,17.70
2009,07,18,09,04,17.70
2009,07,18,09,05,17.80
2009,07,18,09,06,17.70
2009,07,18,09,07,17.70
2009,07,18,09,08,17.50
2009,07,18,09,09,17.40
2009,07,18,09,10,17.30
2009,07,18,09,11,17.30
2009,07,18,09,12,17.30
2009,07,18,09,13,17.30
2009,07,18,09,14,17.40
2009,07,18,09,15,17.50
2009,07,18,09,16,17.50
2009,07,18,09,17,17.50
2009,07,18,09,18,17.50
2009,07,18,09,19,17.50
2009,07,18,09,20,17.50
2009,07,18,09,21,17.40
2009,07,18,09,22,17.40
2009,07,18,09,23,17.50
2009,07,18,09,24,17.60
2009,07,18,09,25,17.60
2009,07,18,09,26,17.70
2009,07,18,09,27,17.70
2009,07,18,09,28,17.80
2009,07,18,09,29,17.80
2009,07,18,09,30,17.90
2009,07,18,09,31,18.00
2009,07,18,09,32,18.10
2009,07,18,09,33,18.20
2009,07,18,09,34,18.30
2009,07,18,09,35,18.30
2009,07,18,09,36,18.40
2009,07,18,09,37,18.40
2009,07,18,09,38,18.30
2009,07,18,09,39,18.30
2009,07,18,09,40,18.30
2009,07,18,09,41,18.30
2009,07,18,09,42,18.40
2009,07,18,09,43,18.40
2009,07,18,09,44,18.50
2009,07,18,09,45,18.50
2009,07,18,09,46,18.60
2009,07,18,09,47,18.50
2009,07,18,09,48,18.50
2009,07,18,09,49,18.50
2009,07,18,09,50,18.50
2009,07,18,09,51,18.30
2009,07,18,09,52,18.10
2009,07,18,09,53,17.90
2009,07,18,09,54,17.80
2009,07,18,09,55,17.70
2009,07,18,09,56,17.70
2009,07,18,09,57,17.70
2009,07,18,09,58,17.60
2009,07,18,09,59,17.60
2009,07,18,10,00,17.60
2009,07,18,10,01,17.70
2009,07,18,10,02,17.70
2009,07,18,10,03,17.70
2009,07,18,10,04,17.80
2009,07,18,10,05,17.90
2009,07,18,10,06,17.90
2009,07,18,10,07,18.00
2009,07,18,10,08,18.10
2009,07,18,10,09,18.20
2009,07,18,10,10,18.30
2009,07,18,10,11,18.40
2009,07,18,10,12,18.40
2009,07,18,10,13,18.30
2009,07,18,10,14,18.20
2009,07,18,10,15,18.20
2009,07,18,10,16,18.20
2009,07,18,10,17,18.20
2009,07,18,10,18,18.20
2009,07,18,10,19,18.20
2009,07,18,10,20,18.20
2009,07,18,10,21,18.20
2009,07,18,10,22,18.30
2009,07,18,10,23,18.30
2009,07,18,10,24,18.30
2009,07,18,10,25,18.40
2009,07,18,10,26,18.50
2009,07,18,10,27,18.60
2009,07,18,10,28,18.70
2009,07,18,10,29,18.80
2009,07,18,10,30,18.90
2009,07,18,10,31,18.90
2009,07,18,10,32,18.90
2009,07,18,10,33,18.90
2009,07,18,10,34,18.90
2009,07,18,10,35,18.80
2009,07,18,10,36,18.80
2009,07,18,10,37,18.80
2009,07,18,10,38,18.80
2009,07,18,10,39,18.90
2009,07,18,10,40,19.10
2009,07,18,10,41,19.10
2009,07,18,10,42,19.30
2009,07,18,10,43,19.40
2009,07,18,10,44,19.50
2009,07,18,10,45,19.50
2009,07,18,10,46,19.60
2009,07,18,10,47,19.60
2009,07,18,10,48,19.70
2009,07,18,10,49,19.60
2009,07,18,10,50,19.60
2009,07,18,10,51,19.60
2009,07,18,10,52,19.50
2009,07,18,10,53,19.30
2009,07,18,10,54,19.30
2009,07,18,10,55,19.20
2009,07,18,10,56,19.20
2009,07,18,10,57,19.10
2009,07,18,10,58,19.00
2009,07,18,10,59,18.90
2009,07,18,11,00,18.90
2009,07,18,11,01,18.90
2009,07,18,11,02,18.90
2009,07,18,11,03,18.90
2009,07,18,11,04,18.90
2009,07,18,11,05,18.90
2009,07,18,11,06,18.90
2009,07,18,11,07,19.00
2009,07,18,11,08,19.10
2009,07,18,11,09,19.10
2009,07,18,11,10,19.00
2009,07,18,11,11,18.90
2009,07,18,11,12,19.00
2009,07,18,11,13,19.10
2009,07,18,11,14,19.10
2009,07,18,11,15,19.10
2009,07,18,11,16,19.10
2009,07,18,11,17,19.10
2009,07,18,11,18,19.10
2009,07,18,11,19,18.90
2009,07,18,11,20,18.80
2009,07,18,11,21,18.60
2009,07,18,11,22,18.60
2009,07,18,11,23,18.60
2009,07,18,11,24,18.70
2009,07,18,11,25,18.80
2009,07,18,11,26,18.80
2009,07,18,11,27,18.90
2009,07,18,11,28,18.90
2009,07,18,11,29,18.90
2009,07,18,11,30,18.90
2009,07,18,11,31,18.90
2009,07,18,11,32,18.90
2009,07,18,11,33,18.80
2009,07,18,11,34,18.70
2009,07,18,11,35,18.60
2009,07,18,11,36,18.50
2009,07,18,11,37,18.40
2009,07,18,11,38,18.20
2009,07,18,11,39,18.20
2009,07,18,11,40,18.10
2009,07,18,11,41,18.00
2009,07,18,11,42,17.90
2009,07,18,11,43,17.90
2009,07,18,11,44,17.90
2009,07,18,11,45,17.90
2009,07,18,11,46,18.00
2009,07,18,11,47,18.20
2009,07,18,11,48,18.20
2009,07,18,11,49,18.20
2009,07,18,11,50,18.20
2009,07,18,11,51,18.30
2009,07,18,11,52,18.30
2009,07,18,11,53,18.30
2009,07,18,11,54,18.30
2009,07,18,11,55,18.30
2009,07,18,11,56,18.30
2009,07,18,11,57,18.20
2009,07,18,11,58,18.20
2009,07,18,11,59,18.00
2009,07,18,12,00,17.90
2009,07,18,12,01,17.80
2009,07,18,12,02,17.70
2009,07,18,12,03,17.70
2009,07,18,12,04,17.80
2009,07,18,12,05,17.80
2009,07,18,12,06,17.80
2009,07,18,12,07,18.00
2009,07,18,12,08,18.10
2009,07,18,12,09,18.10
2009,07,18,12,10,18.20
2009,07,18,12,11,18.20
2009,07,18,12,12,18.20
2009,07,18,12,13,18.20
2009,07,18,12,14,18.20
2009,07,18,12,15,18.20
2009,07,18,12,16,18.20
2009,07,18,12,17,18.20
2009,07,18,12,18,18.20
2009,07,18,12,19,18.20
2009,07,18,12,20,18.20
2009,07,18,12,21,18.30
2009,07,18,12,22,18.40
2009,07,18,12,23,18.40
2009,07,18,12,24,18.30
2009,07,18,12,25,18.40
2009,07,18,12,26,18.50
2009,07,18,12,27,18.60
2009,07,18,12,28,18.80
2009,07,18,12,29,19.00
2009,07,18,12,30,19.10
2009,07,18,12,31,19.20
2009,07,18,12,32,19.20
2009,07,18,12,33,19.20
2009,07,18,12,34,19.30
2009,07,18,12,35,19.40
2009,07,18,12,36,19.50
2009,07,18,12,37,19.60
2009,07,18,12,38,19.70
2009,07,18,12,39,19.70
2009,07,18,12,40,19.70
2009,07,18,12,41,19.90
2009,07,18,12,42,20.10
2009,07,18,12,43,20.20
2009,07,18,12,44,20.30
2009,07,18,12,45,20.30
2009,07,18,12,46,20.30
2009,07,18,12,47,20.30
2009,07,18,12,48,20.30
2009,07,18,12,49,20.60
2009,07,18,12,50,20.70
2009,07,18,12,51,20.70
2009,07,18,12,52,20.80
2009,07,18,12,53,20.80
2009,07,18,12,54,20.80
2009,07,18,12,55,20.80
2009,07,18,12,56,20.70
2009,07,18,12,57,20.60
2009,07,18,12,58,20.50
2009,07,18,12,59,20.60
2009,07,18,13,00,20.60
2009,07,18,13,01,20.70
2009,07,18,13,02,20.70
2009,07,18,13,03,20.60
2009,07,18,13,04,20.60
2009,07,18,13,05,20.70
2009,07,18,13,06,20.70
2009,07,18,13,07,20.80
2009,07,18,13,08,20.80
2009,07,18,13,09,20.90
2009,07,18,13,10,20.90
2009,07,18,13,11,20.80
2009,07,18,13,12,20.80
2009,07,18,13,13,20.70
2009,07,18,13,14,20.60
2009,07,18,13,15,20.50
2009,07,18,13,16,20.50
2009,07,18,13,17,20.30
2009,07,18,13,18,20.20
2009,07,18,13,19,20.10
2009,07,18,13,20,20.10
2009,07,18,13,21,20.10
2009,07,18,13,22,20.00
2009,07,18,13,23,19.90
2009,07,18,13,24,19.90
2009,07,18,13,25,19.90
2009,07,18,13,26,19.80
2009,07,18,13,27,19.80
2009,07,18,13,28,19.70
2009,07,18,13,29,19.70
2009,07,18,13,30,19.70
2009,07,18,13,31,19.70
2009,07,18,13,32,19.60
2009,07,18,13,33,19.40
2009,07,18,13,34,19.40
2009,07,18,13,35,19.50
2009,07,18,13,36,19.60
2009,07,18,13,37,19.70
2009,07,18,13,38,19.90
2009,07,18,13,39,20.00
2009,07,18,13,40,20.20
2009,07,18,13,41,20.20
2009,07,18,13,42,20.20
2009,07,18,13,43,20.20
2009,07,18,13,44,20.20
2009,07,18,13,45,20.40
2009,07,18,13,46,20.70
2009,07,18,13,47,20.80
2009,07,18,13,48,20.80
2009,07,18,13,49,20.70
2009,07,18,13,50,20.60
2009,07,18,13,51,20.70
2009,07,18,13,52,20.70
2009,07,18,13,53,20.70
2009,07,18,13,54,20.70
2009,07,18,13,55,20.50
2009,07,18,13,56,20.40
2009,07,18,13,57,20.20
2009,07,18,13,58,20.10
2009,07,18,13,59,20.00
2009,07,18,14,00,20.00
2009,07,18,14,01,20.10
2009,07,18,14,02,20.00
2009,07,18,14,03,19.90
2009,07,18,14,04,19.70
2009,07,18,14,05,19.60
2009,07,18,14,06,19.70
2009,07,18,14,07,19.70
2009,07,18,14,08,19.80
2009,07,18,14,09,19.90
2009,07,18,14,10,20.00
2009,07,18,14,11,20.10
2009,07,18,14,12,20.30
2009,07,18,14,13,20.50
2009,07,18,14,14,20.80
2009,07,18,14,15,21.00
2009,07,18,14,16,21.10
2009,07,18,14,17,21.20
2009,07,18,14,18,21.00
2009,07,18,14,19,20.80
2009,07,18,14,20,20.60
2009,07,18,14,21,20.40
2009,07,18,14,22,20.30
2009,07,18,14,23,20.30
2009,07,18,14,24,20.30
2009,07,18,14,25,20.30
2009,07,18,14,26,20.30
2009,07,18,14,27,20.40
2009,07,18,14,28,20.40
2009,07,18,14,29,20.40
2009,07,18,14,30,20.40
2009,07,18,14,31,20.20
2009,07,18,14,32,20.20
2009,07,18,14,33,20.20
2009,07,18,14,34,20.30
2009,07,18,14,35,20.50
2009,07,18,14,36,20.70
2009,07,18,14,37,20.80
2009,07,18,14,38,20.80
2009,07,18,14,39,20.80
2009,07,18,14,40,20.60
2009,07,18,14,41,20.50
2009,07,18,14,42,20.40
2009,07,18,14,43,20.30
2009,07,18,14,44,20.10
2009,07,18,14,45,20.10
2009,07,18,14,46,20.20
2009,07,18,14,47,20.40
2009,07,18,14,48,20.60
2009,07,18,14,49,20.80
2009,07,18,14,50,20.90
2009,07,18,14,51,21.00
2009,07,18,14,52,21.00
2009,07,18,14,53,21.10
2009,07,18,14,54,21.10
2009,07,18,14,55,21.20
2009,07,18,14,56,21.20
2009,07,18,14,57,21.10
2009,07,18,14,58,21.00
2009,07,18,14,59,21.00
2009,07,18,15,00,21.00
2009,07,18,15,01,21.00
2009,07,18,15,02,21.00
2009,07,18,15,03,21.00
2009,07,18,15,04,21.00
2009,07,18,15,05,21.00
2009,07,18,15,06,21.10
2009,07,18,15,07,21.20
2009,07,18,15,08,21.30
2009,07,18,15,09,21.40
2009,07,18,15,10,21.60
2009,07,18,15,11,21.60
2009,07,18,15,12,21.70
2009,07,18,15,13,21.80
2009,07,18,15,14,21.80
2009,07,18,15,15,21.80
2009,07,18,15,16,21.70
2009,07,18,15,17,21.60
2009,07,18,15,18,21.60
2009,07,18,15,19,21.50
2009,07,18,15,20,21.50
2009,07,18,15,21,21.60
2009,07,18,15,22,21.50
2009,07,18,15,23,21.40
2009,07,18,15,24,21.40
2009,07,18,15,25,21.50
2009,07,18,15,26,21.60
2009,07,18,15,27,21.70
2009,07,18,15,28,21.90
2009,07,18,15,29,22.00
2009,07,18,15,30,22.00
2009,07,18,15,31,22.00
2009,07,18,15,32,22.00
2009,07,18,15,33,21.90
2009,07,18,15,34,21.60
2009,07,18,15,35,21.30
2009,07,18,15,36,21.00
2009,07,18,15,37,20.90
2009,07,18,15,38,20.80
2009,07,18,15,39,20.80
2009,07,18,15,40,20.70
2009,07,18,15,41,20.60
2009,07,18,15,42,20.60
2009,07,18,15,43,20.70
2009,07,18,15,44,20.70
2009,07,18,15,45,20.80
2009,07,18,15,46,21.00
2009,07,18,15,47,21.10
2009,07,18,15,48,21.20
2009,07,18,15,49,21.30
2009,07,18,15,50,21.30
2009,07,18,15,51,21.30
2009,07,18,15,52,21.30
2009,07,18,15,53,21.40
2009,07,18,15,54,21.50
2009,07,18,15,55,21.60
2009,07,18,15,56,21.70
2009,07,18,15,57,21.80
2009,07,18,15,58,21.90
2009,07,18,15,59,22.00
2009,07,18,16,00,22.20
2009,07,18,16,01,22.50
2009,07,18,16,02,22.70
2009,07,18,16,03,22.60
2009,07,18,16,04,22.40
2009,07,18,16,05,22.30
2009,07,18,16,06,22.70
2009,07,18,16,07,23.10
2009,07,18,16,08,23.50
2009,07,18,16,09,24.00
2009,07,18,16,10,24.30
2009,07,18,16,11,24.80
2009,07,18,16,12,25.10
2009,07,18,16,13,25.40
2009,07,18,16,14,25.60
2009,07,18,16,15,25.80
2009,07,18,16,16,25.90
2009,07,18,16,17,26.00
2009,07,18,16,18,26.10
2009,07,18,16,19,26.20
2009,07,18,16,20,26.40
2009,07,18,16,21,26.40
2009,07,18,16,22,26.50
2009,07,18,16,23,26.60
2009,07,18,16,24,26.60
2009,07,18,16,25,26.70
2009,07,18,16,26,26.70
2009,07,18,16,27,26.70
2009,07,18,16,28,26.60
2009,07,18,16,29,26.50
2009,07,18,16,30,26.40
2009,07,18,16,31,26.40
2009,07,18,16,32,26.40
2009,07,18,16,33,26.40
2009,07,18,16,34,26.30
2009,07,18,16,35,26.30
2009,07,18,16,36,26.30
2009,07,18,16,37,26.20
2009,07,18,16,38,26.20
2009,07,18,16,39,26.10
2009,07,18,16,40,26.10
2009,07,18,16,41,26.10
2009,07,18,16,42,26.10
2009,07,18,16,43,26.10
2009,07,18,16,44,26.10
2009,07,18,16,45,26.10
2009,07,18,16,46,26.10
2009,07,18,16,47,26.20
2009,07,18,16,48,26.30
2009,07,18,16,49,26.20
2009,07,18,16,50,26.20
2009,07,18,16,51,26.20
2009,07,18,16,52,26.10
2009,07,18,16,53,26.10
2009,07,18,16,54,26.10
2009,07,18,16,55,26.20
2009,07,18,16,56,26.20
2009,07,18,16,57,26.20
2009,07,18,16,58,26.30
2009,07,18,16,59,26.30
2009,07,18,17,00,26.30
2009,07,18,17,01,26.40
2009,07,18,17,02,26.40
2009,07,18,17,03,26.50
2009,07,18,17,04,26.60
2009,07,18,17,05,26.60
2009,07,18,17,06,26.60
2009,07,18,17,07,26.20
2009,07,18,17,08,25.80
2009,07,18,17,09,25.70
2009,07,18,17,10,25.40
2009,07,18,17,11,24.90
2009,07,18,17,12,24.30
2009,07,18,17,13,23.80
2009,07,18,17,14,23.60
2009,07,18,17,15,23.40
2009,07,18,17,16,23.30
2009,07,18,17,17,23.30
2009,07,18,17,18,23.30
2009,07,18,17,19,23.20